Flag for Germany Weather past 2 weeks in Dormagen, North Rhine-Westphalia, Germany

Now
75 °F

Scattered clouds.


Feels Like: 77 °F
Forecast: 59 / 75 °F
Wind: 8 mph from Southwest

Location: Duesseldorf

Current Time: Sep 19, 2014 at 4:44:43 PM

Latest Report: Sep 19, 2014 at 4:20 PM


Visibility: N/A

Pressure: 29.86 "Hg

Humidity: 65%

Dew point: 63 °F

Location of DormagenLocation

Historic Weather in Dormagen — Graph

°F

Dormagen temperature yesterday

Maximum temperature yesterday: 72 °F (at 1:50 PM)
Minimum temperature yesterday: 57 °F (at 4:50 AM)
Average temperature yesterday: 64 °F

Past Weeks' High & Low Weather Summary

 TemperatureHumidityPressure
High77 °F (Sep 5, 5:50 PM)100% (Sep 8, 6:50 AM)30.24 "Hg (Sep 8, 6:50 AM)
Low46 °F (Sep 12, 5:50 AM)46% (Sep 11, 4:50 PM)29.83 "Hg (Sep 18, 4:50 AM)
Average63 °F78%30.02 "Hg
* Reported Sep 4 3:20 PM — Sep 19 3:50 PM, Dormagen, Weather by CustomWeather, © 2014

Note: Actual official high and low records may vary slightly from our data, if they occured in-between our weather recording intervals... More about our weather records

Advertising

Dormagen weather history for previous 24 hours

 ConditionsComfort  
Time TempWeatherWind HumidityBarometerVisibility
3:50 PM
Sep 19
75 °FScattered clouds.6 mph61%29.86 "HgN/A
3:20 PM75 °FScattered clouds.6 mph65%29.86 "HgN/A
2:50 PM75 °FPartly sunny.5 mph65%29.86 "HgN/A
2:20 PM75 °FBroken clouds.7 mph65%29.86 "HgN/A
1:50 PM73 °FPartly sunny.5 mph69%29.86 "HgN/A
1:20 PM72 °FPartly sunny.6 mph73%29.86 "HgN/A
12:50 PM72 °FBroken clouds.5 mph73%29.86 "HgN/A
12:20 PM70 °FPartly sunny.7 mph73%29.86 "HgN/A
11:50 AM72 °FPartly sunny.3 mph69%29.86 "HgN/A
11:20 AM70 °FPartly sunny.5 mph73%29.86 "HgN/A
10:50 AM70 °FPartly sunny.6 mph73%29.86 "HgN/A
10:20 AM70 °FScattered clouds.6 mph73%29.86 "HgN/A
9:50 AM68 °FPartly sunny.6 mph83%29.86 "HgN/A
9:20 AM66 °FPartly sunny.7 mph88%29.86 "HgN/A
8:50 AM63 °FSunny.7 mph94%29.86 "Hg10 mi
8:20 AM63 °FSunny.7 mph94%29.86 "Hg10 mi
7:50 AM63 °FClear.7 mph94%29.83 "Hg10 mi
7:20 AM63 °FClear.8 mph94%29.83 "Hg10 mi
6:50 AM63 °FClear.7 mph94%29.83 "Hg10 mi
6:20 AM63 °FClear.8 mph94%29.83 "Hg10 mi
5:50 AM63 °FClear.7 mph94%29.83 "Hg10 mi
5:20 AM63 °FPassing clouds.8 mph94%29.83 "HgN/A
4:50 AM63 °FClear.7 mph94%29.83 "Hg10 mi
4:20 AM64 °FClear.7 mph88%29.83 "Hg10 mi
3:50 AM63 °FClear.5 mph88%29.83 "Hg10 mi
3:20 AM63 °FClear.6 mph94%29.83 "Hg10 mi
2:50 AM63 °FPassing clouds.7 mph94%29.83 "HgN/A
2:20 AM64 °FPassing clouds.8 mph88%29.83 "HgN/A
1:50 AM64 °FPassing clouds.7 mph88%29.83 "HgN/A
1:20 AM63 °FPassing clouds.9 mph94%29.83 "HgN/A
12:50 AM63 °FSprinkles. Passing clouds.6 mph94%29.83 "HgN/A
12:20 AM63 °FSprinkles. Passing clouds.12 mph94%29.86 "HgN/A
11:50 PM
Sep 18
63 °FSprinkles. Passing clouds.9 mph100%29.86 "HgN/A
11:20 PM63 °FLots of rain. Passing clouds.12 mph100%29.86 "HgN/A
10:50 PM64 °FThunderstorms. Partly cloudy.13 mph94%29.86 "HgN/A
10:20 PM64 °FThunderstorms. Partly cloudy.9 mph94%29.86 "HgN/A
9:50 PM64 °FThunderstorms. Passing clouds.10 mph94%29.86 "HgN/A
9:20 PM64 °FThundershowers. Partly cloudy.8 mph94%29.83 "HgN/A
8:50 PM64 °FThunderstorms. Passing clouds.7 mph94%29.83 "HgN/A
8:20 PM66 °FThundershowers. Broken clouds.6 mph88%29.83 "HgN/A
7:50 PM66 °FBroken clouds.6 mph88%29.83 "HgN/A
7:20 PM68 °FBroken clouds.7 mph88%29.83 "HgN/A
6:50 PM68 °FPartly sunny.7 mph88%29.83 "HgN/A
6:20 PM68 °FPartly sunny.8 mph88%29.83 "HgN/A
5:50 PM68 °FRain showers. Broken clouds.5 mph83%29.83 "HgN/A
5:20 PM70 °FScattered showers. Broken clouds.8 mph78%29.83 "HgN/A
4:50 PM68 °FLight rain. Broken clouds.7 mph88%29.83 "HgN/A
4:20 PM70 °FRain. Broken clouds.5 mph78%29.83 "HgN/A
Weather by CustomWeather, © 2014

See weather overviewHow to use our weather pages